Date,TemperatureHighF,TemperatureAvgF,TemperatureLowF,DewpointHighF,DewpointAvgF,DewpointLowF,HumidityHigh,HumidityAvg,HumidityLow,PressureMaxIn,PressureMinIn,WindSpeedMaxMPH,WindSpeedAvgMPH,GustSpeedMaxMPH,PrecipitationSumIn
2013-7-1,88,81,72,68,56,51,66,43,30,29.93,29.81,24,2,24,0.00
2013-7-2,74,68,64,58,57,55,78,69,55,29.99,29.92,5,0,5,0.00
2013-7-3,97,92,78,56,51,48,46,26,20,29.95,29.81,14,2,15,0.00
2013-7-4,94,83,71,67,61,54,83,51,31,29.91,29.79,13,1,13,0.00
2013-7-5,97,82,72,68,63,58,83,55,28,29.91,29.73,19,2,20,0.00
2013-7-6,97,85,73,71,66,59,82,56,31,29.86,29.71,18,3,20,0.00
2013-7-7,100,85,76,73,71,66,86,65,36,29.89,29.76,27,2,27,0.02
2013-7-8,89,81,76,76,72,66,89,74,51,30.02,29.89,22,2,22,0.04
2013-7-9,81,77,74,73,72,71,90,84,73,30.07,30.00,15,2,16,0.00
2013-7-10,101,88,75,73,70,66,88,60,34,30.00,29.81,13,2,18,0.00
2013-7-11,101,88,76,73,68,62,83,55,31,29.92,29.76,9,2,16,0.00
2013-7-12,100,89,76,71,67,62,78,51,31,29.88,29.76,9,2,15,0.00
2013-7-13,104,92,76,70,65,61,73,43,27,29.89,29.72,9,1,14,0.00
2013-7-14,96,84,74,69,66,63,84,57,34,29.83,29.76,17,3,24,0.00
2013-7-15,74,72,69,73,70,66,95,94,85,29.96,29.81,12,0,18,1.43
2013-7-16,88,77,71,76,71,68,95,84,53,30.06,29.94,19,2,19,0.16
2013-7-17,87,75,72,74,71,69,95,87,59,30.11,30.02,33,1,36,1.63
2013-7-18,95,80,71,75,70,67,96,76,43,30.10,29.92,22,1,22,0.00
2013-7-19,98,83,71,74,69,64,93,67,37,30.00,29.82,22,1,22,0.00
2013-7-20,99,83,74,73,70,67,91,68,40,29.91,29.75,19,2,19,0.00
2013-7-21,96,83,75,75,73,70,90,72,47,29.87,29.77,20,3,20,0.00
2013-7-22,96,86,78,74,73,70,85,67,46,29.90,29.79,21,4,21,0.00
2013-7-23,97,86,78,74,71,65,83,65,38,29.92,29.79,21,5,21,0.00